Time,TemperatureF,DewpointF,PressureIn,WindDirection,WindDirectionDegrees,WindSpeedMPH,WindSpeedGustMPH,Humidity,HourlyPrecipIn,Conditions,Clouds,dailyrainin,SoftwareType,DateUTC
2013-03-09 00:05:00,36.9,33.7,29.58,East,100,0.0,0.0,88,0.00,,,0.00,Wunderground v.1.15,2013-03-09 07:05:00,
2013-03-09 00:10:00,36.7,33.5,29.58,East,100,0.0,0.0,88,0.00,,,0.00,Wunderground v.1.15,2013-03-09 07:10:00,
2013-03-09 00:16:00,36.6,33.4,29.58,East,100,0.0,0.0,88,0.00,,,0.00,Wunderground v.1.15,2013-03-09 07:16:00,
2013-03-09 00:22:00,36.4,33.2,29.58,East,100,0.0,0.0,88,0.00,,,0.00,Wunderground v.1.15,2013-03-09 07:22:00,
2013-03-09 00:27:00,36.2,33.0,29.57,East,100,0.0,0.0,88,0.00,,,0.00,Wunderground v.1.15,2013-03-09 07:27:00,
2013-03-09 00:33:00,36.1,32.9,29.58,East,100,0.0,0.0,88,0.00,,,0.00,Wunderground v.1.15,2013-03-09 07:33:00,
2013-03-09 00:39:00,36.1,33.2,29.58,East,100,0.0,0.0,89,0.00,,,0.00,Wunderground v.1.15,2013-03-09 07:39:00,
2013-03-09 00:45:00,36.0,33.1,29.58,East,100,0.0,0.0,89,0.00,,,0.00,Wunderground v.1.15,2013-03-09 07:45:00,
2013-03-09 00:51:00,36.1,33.2,29.58,East,100,0.0,0.0,89,0.00,,,0.00,Wunderground v.1.15,2013-03-09 07:51:00,
2013-03-09 00:57:00,36.3,33.4,29.58,East,100,0.0,0.0,89,0.00,,,0.00,Wunderground v.1.15,2013-03-09 07:57:00,
2013-03-09 01:04:00,36.6,33.7,29.58,East,100,0.0,0.0,89,0.00,,,0.00,Wunderground v.1.15,2013-03-09 08:04:00,
2013-03-09 01:10:00,36.7,33.8,29.58,East,100,0.0,0.0,89,0.00,,,0.00,Wunderground v.1.15,2013-03-09 08:10:00,
2013-03-09 01:16:00,36.7,33.8,29.58,East,100,0.0,0.0,89,0.00,,,0.00,Wunderground v.1.15,2013-03-09 08:16:00,
2013-03-09 01:21:00,36.9,34.2,29.59,East,100,0.0,0.0,90,0.00,,,0.00,Wunderground v.1.15,2013-03-09 08:21:00,
2013-03-09 01:27:00,37.2,34.5,29.58,East,100,0.0,0.0,90,0.00,,,0.01,Wunderground v.1.15,2013-03-09 08:27:00,
2013-03-09 01:34:00,37.6,34.9,29.59,East,100,0.0,2.0,90,0.00,,,0.01,Wunderground v.1.15,2013-03-09 08:34:00,
2013-03-09 01:40:00,37.9,35.2,29.59,East,100,0.0,1.0,90,0.00,,,0.01,Wunderground v.1.15,2013-03-09 08:40:00,
2013-03-09 01:45:00,37.9,35.2,29.59,East,100,0.0,1.0,90,0.00,,,0.01,Wunderground v.1.15,2013-03-09 08:45:00,
2013-03-09 01:52:00,37.9,35.2,29.59,East,100,0.0,0.0,90,0.00,,,0.01,Wunderground v.1.15,2013-03-09 08:52:00,
2013-03-09 01:57:00,38.0,35.3,29.59,East,100,1.0,1.0,90,0.00,,,0.01,Wunderground v.1.15,2013-03-09 08:57:00,
2013-03-09 02:02:00,38.2,35.5,29.59,East,100,0.0,0.0,90,0.00,,,0.01,Wunderground v.1.15,2013-03-09 09:02:00,
2013-03-09 02:08:00,38.4,35.7,29.59,East,100,0.0,0.0,90,0.00,,,0.01,Wunderground v.1.15,2013-03-09 09:08:00,
2013-03-09 02:13:00,38.5,35.8,29.59,East,100,0.0,0.0,90,0.00,,,0.01,Wunderground v.1.15,2013-03-09 09:13:00,
2013-03-09 02:19:00,38.6,35.9,29.58,East,100,0.0,0.0,90,0.00,,,0.01,Wunderground v.1.15,2013-03-09 09:19:00,
2013-03-09 02:25:00,38.6,35.9,29.58,East,100,0.0,0.0,90,0.00,,,0.01,Wunderground v.1.15,2013-03-09 09:25:00,
2013-03-09 02:30:00,38.6,35.9,29.58,East,100,2.0,2.0,90,0.00,,,0.01,Wunderground v.1.15,2013-03-09 09:30:00,
2013-03-09 02:36:00,38.7,36.0,29.58,East,100,0.0,3.0,90,0.00,,,0.01,Wunderground v.1.15,2013-03-09 09:36:00,
2013-03-09 02:42:00,38.7,36.0,29.58,East,100,0.0,1.0,90,0.00,,,0.01,Wunderground v.1.15,2013-03-09 09:42:00,
2013-03-09 02:47:00,38.5,35.8,29.57,East,100,0.0,1.0,90,0.00,,,0.01,Wunderground v.1.15,2013-03-09 09:47:00,
2013-03-09 02:52:00,38.3,35.6,29.57,East,100,0.0,0.0,90,0.00,,,0.01,Wunderground v.1.15,2013-03-09 09:52:00,
2013-03-09 02:57:00,38.2,35.5,29.57,East,100,0.0,0.0,90,0.00,,,0.01,Wunderground v.1.15,2013-03-09 09:57:00,
2013-03-09 03:02:00,38.0,35.0,29.57,East,100,0.0,0.0,89,0.00,,,0.01,Wunderground v.1.15,2013-03-09 10:02:00,
2013-03-09 03:08:00,37.9,34.9,29.57,East,100,0.0,0.0,89,0.00,,,0.01,Wunderground v.1.15,2013-03-09 10:08:00,
2013-03-09 03:14:00,37.9,35.2,29.57,East,100,0.0,0.0,90,0.00,,,0.01,Wunderground v.1.15,2013-03-09 10:14:00,
2013-03-09 03:22:00,38.0,35.0,29.57,East,100,0.0,0.0,89,0.00,,,0.01,Wunderground v.1.15,2013-03-09 10:22:00,
2013-03-09 03:28:00,38.0,35.3,29.57,East,100,0.0,0.0,90,0.00,,,0.01,Wunderground v.1.15,2013-03-09 10:28:00,
2013-03-09 03:33:00,37.9,34.9,29.57,East,100,0.0,0.0,89,0.00,,,0.01,Wunderground v.1.15,2013-03-09 10:33:00,
2013-03-09 03:38:00,37.7,34.8,29.57,East,100,0.0,1.0,89,0.00,,,0.01,Wunderground v.1.15,2013-03-09 10:38:00,
2013-03-09 03:43:00,37.7,34.8,29.57,East,100,0.0,0.0,89,0.00,,,0.01,Wunderground v.1.15,2013-03-09 10:43:00,
2013-03-09 03:48:00,37.6,34.7,29.57,East,100,0.0,2.0,89,0.00,,,0.01,Wunderground v.1.15,2013-03-09 10:48:00,
2013-03-09 03:55:00,37.4,34.5,29.58,East,100,1.0,1.0,89,0.00,,,0.01,Wunderground v.1.15,2013-03-09 10:55:00,
2013-03-09 04:00:00,37.4,34.5,29.58,East,100,0.0,1.0,89,0.00,,,0.01,Wunderground v.1.15,2013-03-09 11:00:00,
2013-03-09 04:05:00,37.4,34.5,29.58,East,100,0.0,1.0,89,0.00,,,0.01,Wunderground v.1.15,2013-03-09 11:05:00,
2013-03-09 04:11:00,37.3,34.4,29.58,East,100,0.0,0.0,89,0.00,,,0.01,Wunderground v.1.15,2013-03-09 11:11:00,
2013-03-09 04:16:00,37.4,34.5,29.58,East,100,0.0,2.0,89,0.00,,,0.01,Wunderground v.1.15,2013-03-09 11:16:00,
2013-03-09 04:21:00,37.4,34.5,29.59,East,100,0.0,0.0,89,0.00,,,0.01,Wunderground v.1.15,2013-03-09 11:21:00,
2013-03-09 04:27:00,37.7,34.8,29.59,East,100,0.0,1.0,89,0.00,,,0.01,Wunderground v.1.15,2013-03-09 11:27:00,
2013-03-09 04:33:00,37.9,34.9,29.59,East,100,1.0,3.0,89,0.00,,,0.01,Wunderground v.1.15,2013-03-09 11:33:00,
2013-03-09 04:38:00,38.1,35.1,29.59,East,100,2.0,3.0,89,0.00,,,0.01,Wunderground v.1.15,2013-03-09 11:38:00,
2013-03-09 04:45:00,38.1,34.9,29.60,East,100,3.0,3.0,88,0.00,,,0.01,Wunderground v.1.15,2013-03-09 11:45:00,
2013-03-09 04:50:00,38.0,34.8,29.60,East,100,2.0,2.0,88,0.00,,,0.01,Wunderground v.1.15,2013-03-09 11:50:00,
2013-03-09 04:57:00,37.9,34.9,29.60,East,100,1.0,3.0,89,0.00,,,0.01,Wunderground v.1.15,2013-03-09 11:57:00,
2013-03-09 05:02:00,37.8,34.8,29.60,East,100,0.0,1.0,89,0.00,,,0.01,Wunderground v.1.15,2013-03-09 12:02:00,
2013-03-09 05:08:00,37.7,34.8,29.61,NNW,331,3.0,4.0,89,0.00,,,0.01,Wunderground v.1.15,2013-03-09 12:08:00,
2013-03-09 05:13:00,37.6,34.7,29.61,NNW,327,3.0,4.0,89,0.00,,,0.01,Wunderground v.1.15,2013-03-09 12:13:00,
2013-03-09 05:19:00,37.5,34.6,29.61,NW,320,4.0,5.0,89,0.00,,,0.01,Wunderground v.1.15,2013-03-09 12:19:00,
2013-03-09 05:24:00,37.5,34.6,29.61,NW,319,0.0,4.0,89,0.00,,,0.01,Wunderground v.1.15,2013-03-09 12:24:00,
2013-03-09 05:29:00,37.5,34.6,29.61,NW,319,0.0,4.0,89,0.00,,,0.01,Wunderground v.1.15,2013-03-09 12:29:00,
2013-03-09 05:34:00,37.6,34.9,29.62,NW,319,0.0,1.0,90,0.00,,,0.01,Wunderground v.1.15,2013-03-09 12:34:00,
2013-03-09 05:39:00,37.5,34.6,29.62,SW,216,3.0,3.0,89,0.00,,,0.01,Wunderground v.1.15,2013-03-09 12:39:00,
2013-03-09 05:45:00,38.4,32.8,29.62,SW,236,1.0,13.0,80,0.00,,,0.01,Wunderground v.1.15,2013-03-09 12:45:00,
2013-03-09 05:52:00,39.2,31.9,29.63,South,190,10.0,10.0,75,0.00,,,0.01,Wunderground v.1.15,2013-03-09 12:52:00,
2013-03-09 05:57:00,39.4,30.8,29.63,NE,42,2.0,10.0,71,0.00,,,0.01,Wunderground v.1.15,2013-03-09 12:57:00,
2013-03-09 06:03:00,39.4,30.4,29.63,South,175,4.0,6.0,70,0.00,,,0.01,Wunderground v.1.15,2013-03-09 13:03:00,
2013-03-09 06:09:00,39.4,30.1,29.64,NNW,327,5.0,6.0,69,0.00,,,0.01,Wunderground v.1.15,2013-03-09 13:09:00,
2013-03-09 06:14:00,39.5,30.9,29.64,WSW,248,9.0,10.0,71,0.00,,,0.01,Wunderground v.1.15,2013-03-09 13:14:00,
2013-03-09 06:19:00,39.3,30.3,29.64,WSW,257,3.0,10.0,70,0.00,,,0.01,Wunderground v.1.15,2013-03-09 13:19:00,
2013-03-09 06:24:00,39.2,30.6,29.64,SSE,148,3.0,7.0,71,0.00,,,0.01,Wunderground v.1.15,2013-03-09 13:24:00,
2013-03-09 06:30:00,39.1,30.1,29.65,NW,306,1.0,2.0,70,0.00,,,0.01,Wunderground v.1.15,2013-03-09 13:30:00,
2013-03-09 06:35:00,39.0,29.7,29.65,SSW,210,10.0,10.0,69,0.00,,,0.01,Wunderground v.1.15,2013-03-09 13:35:00,
2013-03-09 06:40:00,39.0,29.3,29.65,South,173,4.0,4.0,68,0.00,,,0.01,Wunderground v.1.15,2013-03-09 13:40:00,
2013-03-09 06:45:00,39.0,29.3,29.66,SW,217,4.0,9.0,68,0.00,,,0.01,Wunderground v.1.15,2013-03-09 13:45:00,
2013-03-09 06:52:00,38.9,28.9,29.66,SW,217,0.0,3.0,67,0.00,,,0.01,Wunderground v.1.15,2013-03-09 13:52:00,
2013-03-09 06:57:00,38.8,29.1,29.67,SSW,208,0.0,5.0,68,0.00,,,0.01,Wunderground v.1.15,2013-03-09 13:57:00,
2013-03-09 07:03:00,38.7,28.7,29.67,NW,322,3.0,4.0,67,0.00,,,0.01,Wunderground v.1.15,2013-03-09 14:03:00,
2013-03-09 07:08:00,38.8,29.1,29.68,NW,325,2.0,5.0,68,0.00,,,0.01,Wunderground v.1.15,2013-03-09 14:08:00,
2013-03-09 07:14:00,38.6,30.0,29.69,North,10,5.0,7.0,71,0.00,,,0.01,Wunderground v.1.15,2013-03-09 14:14:00,
2013-03-09 07:20:00,37.8,30.9,29.69,North,360,2.0,2.0,76,0.00,,,0.01,Wunderground v.1.15,2013-03-09 14:20:00,
2013-03-09 07:26:00,36.9,31.0,29.70,North,360,3.0,5.0,79,0.00,,,0.01,Wunderground v.1.15,2013-03-09 14:26:00,
2013-03-09 07:32:00,36.4,31.1,29.70,NNE,19,2.0,4.0,81,0.00,,,0.01,Wunderground v.1.15,2013-03-09 14:32:00,
2013-03-09 07:37:00,35.9,31.2,29.70,WNW,299,3.0,5.0,83,0.00,,,0.01,Wunderground v.1.15,2013-03-09 14:37:00,
2013-03-09 07:43:00,35.5,31.1,29.71,WNW,299,0.0,3.0,84,0.00,,,0.01,Wunderground v.1.15,2013-03-09 14:43:00,
2013-03-09 07:50:00,35.2,31.1,29.71,NW,304,0.0,1.0,85,0.00,,,0.01,Wunderground v.1.15,2013-03-09 14:50:00,
2013-03-09 07:55:00,35.1,31.3,29.72,NW,306,0.0,4.0,86,0.00,,,0.01,Wunderground v.1.15,2013-03-09 14:55:00,
2013-03-09 08:00:00,35.0,31.2,29.72,NW,306,1.0,3.0,86,0.00,,,0.01,Wunderground v.1.15,2013-03-09 15:00:00,
2013-03-09 08:05:00,35.0,31.2,29.72,NNW,337,3.0,6.0,86,0.00,,,0.01,Wunderground v.1.15,2013-03-09 15:05:00,
2013-03-09 08:10:00,35.0,31.5,29.72,NNW,343,1.0,2.0,87,0.00,,,0.02,Wunderground v.1.15,2013-03-09 15:10:00,
2013-03-09 08:15:00,34.9,31.4,29.73,NNW,344,2.0,4.0,87,0.00,,,0.02,Wunderground v.1.15,2013-03-09 15:15:00,
2013-03-09 08:20:00,34.9,31.4,29.73,NNW,343,2.0,2.0,87,0.00,,,0.02,Wunderground v.1.15,2013-03-09 15:20:00,
2013-03-09 08:26:00,34.7,31.5,29.74,NNW,342,0.0,5.0,88,0.00,,,0.02,Wunderground v.1.15,2013-03-09 15:26:00,
2013-03-09 08:31:00,34.7,31.5,29.74,NNW,342,0.0,2.0,88,0.00,,,0.02,Wunderground v.1.15,2013-03-09 15:31:00,
2013-03-09 08:36:00,34.6,31.4,29.74,NNW,342,0.0,3.0,88,0.00,,,0.02,Wunderground v.1.15,2013-03-09 15:36:00,
2013-03-09 08:41:00,34.5,31.3,29.74,NNW,342,0.0,1.0,88,0.00,,,0.03,Wunderground v.1.15,2013-03-09 15:41:00,
2013-03-09 08:47:00,34.6,31.4,29.75,NNW,342,2.0,3.0,88,0.00,,,0.03,Wunderground v.1.15,2013-03-09 15:47:00,
2013-03-09 08:52:00,34.6,31.4,29.75,NNW,342,2.0,2.0,88,0.00,,,0.03,Wunderground v.1.15,2013-03-09 15:52:00,
2013-03-09 08:59:00,34.6,31.7,29.75,NNW,342,0.0,3.0,89,0.00,,,0.03,Wunderground v.1.15,2013-03-09 15:59:00,
2013-03-09 09:04:00,34.6,31.7,29.75,NNW,342,4.0,4.0,89,0.00,,,0.03,Wunderground v.1.15,2013-03-09 16:04:00,
2013-03-09 09:09:00,34.6,31.7,29.75,NNW,342,0.0,4.0,89,0.00,,,0.04,Wunderground v.1.15,2013-03-09 16:09:00,
2013-03-09 09:15:00,34.5,31.6,29.76,NNW,342,1.0,4.0,89,0.00,,,0.04,Wunderground v.1.15,2013-03-09 16:15:00,
2013-03-09 09:20:00,34.4,31.5,29.76,NNW,340,1.0,2.0,89,0.00,,,0.04,Wunderground v.1.15,2013-03-09 16:20:00,
2013-03-09 09:26:00,34.4,31.5,29.76,NNW,338,1.0,6.0,89,0.00,,,0.04,Wunderground v.1.15,2013-03-09 16:26:00,
2013-03-09 09:31:00,34.4,31.5,29.76,NNW,338,3.0,4.0,89,0.00,,,0.05,Wunderground v.1.15,2013-03-09 16:31:00,
2013-03-09 09:37:00,34.4,31.5,29.77,NNW,338,0.0,4.0,89,0.00,,,0.05,Wunderground v.1.15,2013-03-09 16:37:00,
2013-03-09 09:43:00,34.6,31.7,29.77,NNW,338,2.0,2.0,89,0.00,,,0.05,Wunderground v.1.15,2013-03-09 16:43:00,
2013-03-09 09:48:00,34.8,32.2,29.77,NNW,338,0.0,2.0,90,0.00,,,0.05,Wunderground v.1.15,2013-03-09 16:48:00,
2013-03-09 09:53:00,35.0,32.4,29.77,NNW,338,2.0,5.0,90,0.00,,,0.05,Wunderground v.1.15,2013-03-09 16:53:00,
2013-03-09 09:59:00,35.0,32.4,29.77,NNW,338,1.0,5.0,90,0.00,,,0.05,Wunderground v.1.15,2013-03-09 16:59:00,
2013-03-09 10:05:00,35.1,32.5,29.78,NNW,338,0.0,2.0,90,0.00,,,0.05,Wunderground v.1.15,2013-03-09 17:05:00,
2013-03-09 10:10:00,35.2,32.6,29.78,NNW,338,0.0,1.0,90,0.00,,,0.05,Wunderground v.1.15,2013-03-09 17:10:00,
2013-03-09 10:15:00,35.2,32.6,29.78,NNW,338,2.0,3.0,90,0.00,,,0.06,Wunderground v.1.15,2013-03-09 17:15:00,
2013-03-09 10:21:00,35.0,32.4,29.78,NNW,336,2.0,4.0,90,0.00,,,0.06,Wunderground v.1.15,2013-03-09 17:21:00,
2013-03-09 10:26:00,34.8,31.9,29.78,NNW,336,1.0,4.0,89,0.00,,,0.06,Wunderground v.1.15,2013-03-09 17:26:00,
2013-03-09 10:32:00,34.7,32.1,29.79,NNW,336,1.0,3.0,90,0.00,,,0.06,Wunderground v.1.15,2013-03-09 17:32:00,
2013-03-09 10:37:00,34.7,32.1,29.79,NNW,336,0.0,3.0,90,0.00,,,0.06,Wunderground v.1.15,2013-03-09 17:37:00,
2013-03-09 10:43:00,34.5,31.9,29.79,NNW,336,1.0,1.0,90,0.00,,,0.06,Wunderground v.1.15,2013-03-09 17:43:00,
2013-03-09 10:49:00,34.6,32.0,29.80,NNW,336,0.0,2.0,90,0.00,,,0.07,Wunderground v.1.15,2013-03-09 17:49:00,
2013-03-09 10:54:00,34.7,32.1,29.80,NNW,336,0.0,1.0,90,0.00,,,0.07,Wunderground v.1.15,2013-03-09 17:54:00,
2013-03-09 10:59:00,34.8,32.2,29.80,NNW,336,0.0,3.0,90,0.00,,,0.07,Wunderground v.1.15,2013-03-09 17:59:00,
2013-03-09 11:04:00,35.0,32.4,29.80,NNW,336,1.0,2.0,90,0.00,,,0.07,Wunderground v.1.15,2013-03-09 18:04:00,
2013-03-09 11:09:00,35.1,32.5,29.81,NNW,336,0.0,2.0,90,0.00,,,0.07,Wunderground v.1.15,2013-03-09 18:09:00,
2013-03-09 11:14:00,35.2,32.6,29.81,NNW,336,3.0,3.0,90,0.00,,,0.08,Wunderground v.1.15,2013-03-09 18:14:00,
2013-03-09 11:19:00,35.4,32.8,29.81,NNW,336,0.0,3.0,90,0.00,,,0.08,Wunderground v.1.15,2013-03-09 18:19:00,
2013-03-09 11:24:00,35.5,32.9,29.82,NNW,337,1.0,2.0,90,0.00,,,0.08,Wunderground v.1.15,2013-03-09 18:24:00,
2013-03-09 11:30:00,35.4,32.8,29.82,NNW,336,0.0,0.0,90,0.04,,,0.09,Wunderground v.1.15,2013-03-09 18:30:00,
2013-03-09 11:35:00,35.4,32.8,29.82,NNW,336,1.0,2.0,90,0.04,,,0.09,Wunderground v.1.15,2013-03-09 18:35:00,
2013-03-09 11:41:00,35.3,32.7,29.82,NNW,336,0.0,0.0,90,0.04,,,0.09,Wunderground v.1.15,2013-03-09 18:41:00,
2013-03-09 11:46:00,35.2,32.6,29.82,NNW,336,0.0,0.0,90,0.04,,,0.10,Wunderground v.1.15,2013-03-09 18:46:00,
2013-03-09 11:51:00,35.3,32.7,29.82,NNW,336,0.0,0.0,90,0.04,,,0.10,Wunderground v.1.15,2013-03-09 18:51:00,
2013-03-09 11:56:00,35.2,32.6,29.83,NNW,336,3.0,3.0,90,0.05,,,0.11,Wunderground v.1.15,2013-03-09 18:56:00,
2013-03-09 12:02:00,35.0,32.4,29.83,NNW,337,2.0,3.0,90,0.05,,,0.11,Wunderground v.1.15,2013-03-09 19:02:00,
2013-03-09 12:07:00,35.1,32.5,29.83,NNW,337,0.0,3.0,90,0.05,,,0.11,Wunderground v.1.15,2013-03-09 19:07:00,
2013-03-09 12:12:00,35.3,32.7,29.83,NNW,336,2.0,3.0,90,0.00,,,0.11,Wunderground v.1.15,2013-03-09 19:12:00,
2013-03-09 12:18:00,35.7,33.1,29.83,NNW,337,0.0,3.0,90,0.00,,,0.11,Wunderground v.1.15,2013-03-09 19:18:00,
2013-03-09 12:23:00,35.9,33.3,29.83,NNW,336,1.0,3.0,90,0.00,,,0.12,Wunderground v.1.15,2013-03-09 19:23:00,
2013-03-09 12:28:00,36.0,33.4,29.83,NNW,336,1.0,4.0,90,0.00,,,0.12,Wunderground v.1.15,2013-03-09 19:28:00,
2013-03-09 12:33:00,36.1,33.5,29.83,NNW,336,2.0,5.0,90,0.00,,,0.12,Wunderground v.1.15,2013-03-09 19:33:00,
2013-03-09 12:38:00,36.3,33.9,29.83,NNW,336,1.0,5.0,91,0.00,,,0.12,Wunderground v.1.15,2013-03-09 19:38:00,
2013-03-09 12:44:00,36.5,33.8,29.83,NNW,336,2.0,4.0,90,0.00,,,0.12,Wunderground v.1.15,2013-03-09 19:44:00,
2013-03-09 12:49:00,36.6,33.9,29.83,NNW,336,2.0,4.0,90,0.00,,,0.12,Wunderground v.1.15,2013-03-09 19:49:00,
2013-03-09 12:54:00,36.7,34.0,29.83,NNW,336,3.0,6.0,90,0.00,,,0.12,Wunderground v.1.15,2013-03-09 19:54:00,
2013-03-09 12:59:00,37.0,34.3,29.83,NNW,336,2.0,7.0,90,0.00,,,0.12,Wunderground v.1.15,2013-03-09 19:59:00,
2013-03-09 13:04:00,37.2,34.5,29.83,NNW,336,2.0,4.0,90,0.00,,,0.12,Wunderground v.1.15,2013-03-09 20:04:00,
2013-03-09 13:09:00,37.3,34.6,29.83,NNW,336,2.0,4.0,90,0.00,,,0.12,Wunderground v.1.15,2013-03-09 20:09:00,
2013-03-09 13:14:00,37.6,34.9,29.83,NNW,336,2.0,3.0,90,0.00,,,0.12,Wunderground v.1.15,2013-03-09 20:14:00,
2013-03-09 13:20:00,37.8,35.1,29.84,NNW,336,3.0,3.0,90,0.00,,,0.12,Wunderground v.1.15,2013-03-09 20:20:00,
2013-03-09 13:26:00,38.0,35.0,29.83,NNW,336,3.0,7.0,89,0.00,,,0.12,Wunderground v.1.15,2013-03-09 20:26:00,
2013-03-09 13:31:00,38.3,35.3,29.84,NNW,331,4.0,4.0,89,0.00,,,0.12,Wunderground v.1.15,2013-03-09 20:31:00,
2013-03-09 13:36:00,38.6,35.4,29.84,WNW,297,3.0,8.0,88,0.00,,,0.12,Wunderground v.1.15,2013-03-09 20:36:00,
2013-03-09 13:41:00,38.5,35.0,29.84,NW,323,2.0,4.0,87,0.00,,,0.12,Wunderground v.1.15,2013-03-09 20:41:00,
2013-03-09 13:46:00,38.4,34.6,29.84,NW,321,7.0,12.0,86,0.00,,,0.12,Wunderground v.1.15,2013-03-09 20:46:00,
2013-03-09 13:51:00,38.3,34.5,29.85,NW,306,0.0,7.0,86,0.00,,,0.12,Wunderground v.1.15,2013-03-09 20:51:00,
2013-03-09 13:56:00,38.0,33.9,29.85,North,350,4.0,11.0,85,0.00,,,0.12,Wunderground v.1.15,2013-03-09 20:56:00,
2013-03-09 14:01:00,37.9,34.1,29.85,NNW,340,4.0,5.0,86,0.00,,,0.12,Wunderground v.1.15,2013-03-09 21:01:00,
2013-03-09 14:07:00,37.7,33.9,29.85,NNW,331,4.0,11.0,86,0.00,,,0.12,Wunderground v.1.15,2013-03-09 21:07:00,
2013-03-09 14:13:00,37.6,33.8,29.85,NNW,343,3.0,8.0,86,0.00,,,0.12,Wunderground v.1.15,2013-03-09 21:13:00,
2013-03-09 14:18:00,37.7,34.2,29.86,North,360,4.0,8.0,87,0.00,,,0.12,Wunderground v.1.15,2013-03-09 21:18:00,
2013-03-09 14:23:00,37.7,34.2,29.86,NNW,327,3.0,11.0,87,0.00,,,0.12,Wunderground v.1.15,2013-03-09 21:23:00,
2013-03-09 14:32:00,37.7,34.5,29.86,NNW,341,5.0,5.0,88,0.00,,,0.12,Wunderground v.1.15,2013-03-09 21:32:00,
2013-03-09 14:37:00,37.5,34.3,29.86,NW,318,6.0,9.0,88,0.00,,,0.12,Wunderground v.1.15,2013-03-09 21:37:00,
2013-03-09 14:43:00,37.5,34.3,29.86,NNW,338,4.0,11.0,88,0.00,,,0.13,Wunderground v.1.15,2013-03-09 21:43:00,
2013-03-09 14:48:00,37.6,34.4,29.87,NW,304,3.0,11.0,88,0.00,,,0.13,Wunderground v.1.15,2013-03-09 21:48:00,
2013-03-09 14:54:00,37.8,34.8,29.87,NNW,336,2.0,4.0,89,0.00,,,0.13,Wunderground v.1.15,2013-03-09 21:54:00,
2013-03-09 15:02:00,38.1,35.1,29.87,NNW,346,6.0,6.0,89,0.00,,,0.13,Wunderground v.1.15,2013-03-09 22:02:00,
2013-03-09 15:09:00,38.2,35.2,29.87,NNW,341,4.0,8.0,89,0.00,,,0.13,Wunderground v.1.15,2013-03-09 22:09:00,
2013-03-09 15:14:00,38.6,35.6,29.87,NNW,340,2.0,4.0,89,0.00,,,0.13,Wunderground v.1.15,2013-03-09 22:14:00,
2013-03-09 15:19:00,39.0,36.3,29.87,NNW,340,1.0,5.0,90,0.00,,,0.13,Wunderground v.1.15,2013-03-09 22:19:00,
2013-03-09 15:24:00,39.3,36.3,29.87,NNW,340,1.0,2.0,89,0.00,,,0.13,Wunderground v.1.15,2013-03-09 22:24:00,
2013-03-09 15:30:00,39.8,36.8,29.87,WNW,284,5.0,5.0,89,0.00,,,0.13,Wunderground v.1.15,2013-03-09 22:30:00,
2013-03-09 15:36:00,40.2,36.1,29.87,West,259,2.0,6.0,85,0.00,,,0.13,Wunderground v.1.15,2013-03-09 22:36:00,
2013-03-09 15:41:00,40.5,34.8,29.88,West,259,2.0,12.0,80,0.00,,,0.13,Wunderground v.1.15,2013-03-09 22:41:00,
2013-03-09 15:46:00,40.5,33.5,29.88,West,277,6.0,14.0,76,0.00,,,0.13,Wunderground v.1.15,2013-03-09 22:46:00,
2013-03-09 15:52:00,40.5,32.5,29.88,SW,232,1.0,10.0,73,0.00,,,0.13,Wunderground v.1.15,2013-03-09 22:52:00,
2013-03-09 15:57:00,40.6,32.6,29.88,WNW,288,3.0,12.0,73,0.00,,,0.13,Wunderground v.1.15,2013-03-09 22:57:00,
2013-03-09 16:02:00,40.7,32.7,29.89,West,261,3.0,7.0,73,0.00,,,0.13,Wunderground v.1.15,2013-03-09 23:02:00,
2013-03-09 16:07:00,40.8,32.1,29.89,West,278,4.0,8.0,71,0.00,,,0.13,Wunderground v.1.15,2013-03-09 23:07:00,
2013-03-09 16:13:00,41.0,33.0,29.89,WSW,240,0.0,5.0,73,0.00,,,0.13,Wunderground v.1.15,2013-03-09 23:13:00,
2013-03-09 16:18:00,41.2,33.2,29.89,WNW,300,11.0,11.0,73,0.00,,,0.13,Wunderground v.1.15,2013-03-09 23:18:00,
2013-03-09 16:23:00,41.3,32.6,29.90,WSW,242,4.0,12.0,71,0.00,,,0.13,Wunderground v.1.15,2013-03-09 23:23:00,
2013-03-09 16:29:00,41.4,32.3,29.90,West,267,3.0,12.0,70,0.00,,,0.13,Wunderground v.1.15,2013-03-09 23:29:00,
2013-03-09 16:34:00,41.5,32.4,29.90,SW,225,9.0,12.0,70,0.00,,,0.13,Wunderground v.1.15,2013-03-09 23:34:00,
2013-03-09 16:40:00,41.5,32.4,29.90,West,277,6.0,6.0,70,0.00,,,0.13,Wunderground v.1.15,2013-03-09 23:40:00,
2013-03-09 16:45:00,41.6,32.5,29.90,WSW,257,4.0,7.0,70,0.00,,,0.13,Wunderground v.1.15,2013-03-09 23:45:00,
2013-03-09 16:50:00,41.8,32.7,29.91,WSW,254,3.0,5.0,70,0.00,,,0.13,Wunderground v.1.15,2013-03-09 23:50:00,
2013-03-09 16:55:00,42.0,31.8,29.91,NW,304,1.0,10.0,67,0.00,,,0.13,Wunderground v.1.15,2013-03-09 23:55:00,
2013-03-09 17:01:00,42.1,31.9,29.91,WSW,252,3.0,5.0,67,0.00,,,0.13,Wunderground v.1.15,2013-03-10 00:01:00,
2013-03-09 17:07:00,42.1,31.9,29.92,WSW,256,4.0,7.0,67,0.00,,,0.13,Wunderground v.1.15,2013-03-10 00:07:00,
2013-03-09 17:12:00,42.0,31.5,29.92,West,265,4.0,10.0,66,0.00,,,0.13,Wunderground v.1.15,2013-03-10 00:12:00,
2013-03-09 17:17:00,42.0,31.5,29.93,West,261,5.0,10.0,66,0.00,,,0.13,Wunderground v.1.15,2013-03-10 00:17:00,
2013-03-09 17:23:00,41.9,31.4,29.93,WSW,242,2.0,6.0,66,0.00,,,0.13,Wunderground v.1.15,2013-03-10 00:23:00,
2013-03-09 17:30:00,41.9,31.7,29.93,West,275,4.0,4.0,67,0.00,,,0.13,Wunderground v.1.15,2013-03-10 00:30:00,
2013-03-09 17:35:00,41.9,31.0,29.94,West,266,3.0,5.0,65,0.00,,,0.13,Wunderground v.1.15,2013-03-10 00:35:00,
2013-03-09 17:40:00,41.9,31.0,29.94,West,259,4.0,4.0,65,0.00,,,0.13,Wunderground v.1.15,2013-03-10 00:40:00,
2013-03-09 17:45:00,41.9,30.6,29.94,West,273,7.0,7.0,64,0.00,,,0.13,Wunderground v.1.15,2013-03-10 00:45:00,
2013-03-09 17:51:00,41.8,30.5,29.95,West,266,3.0,6.0,64,0.00,,,0.13,Wunderground v.1.15,2013-03-10 00:51:00,
2013-03-09 17:57:00,41.8,30.5,29.95,WNW,294,4.0,7.0,64,0.00,,,0.13,Wunderground v.1.15,2013-03-10 00:57:00,
2013-03-09 18:02:00,41.7,30.4,29.96,WNW,286,0.0,10.0,64,0.00,,,0.13,Wunderground v.1.15,2013-03-10 01:02:00,
2013-03-09 18:07:00,41.5,30.6,29.97,WNW,283,0.0,10.0,65,0.00,,,0.13,Wunderground v.1.15,2013-03-10 01:07:00,
2013-03-09 18:12:00,41.3,30.4,29.97,West,270,0.0,2.0,65,0.00,,,0.13,Wunderground v.1.15,2013-03-10 01:12:00,
2013-03-09 18:17:00,41.1,30.2,29.97,West,270,0.0,3.0,65,0.00,,,0.13,Wunderground v.1.15,2013-03-10 01:17:00,
2013-03-09 18:22:00,40.9,29.3,29.97,West,271,3.0,3.0,63,0.00,,,0.13,Wunderground v.1.15,2013-03-10 01:22:00,
2013-03-09 18:28:00,40.7,28.7,29.98,West,273,0.0,4.0,62,0.00,,,0.13,Wunderground v.1.15,2013-03-10 01:28:00,
2013-03-09 18:33:00,40.6,28.2,29.98,West,273,0.0,1.0,61,0.00,,,0.13,Wunderground v.1.15,2013-03-10 01:33:00,
2013-03-09 18:38:00,40.5,27.7,29.99,West,278,0.0,4.0,60,0.00,,,0.13,Wunderground v.1.15,2013-03-10 01:38:00,
2013-03-09 18:45:00,40.5,27.3,30.00,West,280,0.0,3.0,59,0.00,,,0.13,Wunderground v.1.15,2013-03-10 01:45:00,
2013-03-09 18:50:00,40.3,27.1,30.00,West,280,2.0,2.0,59,0.00,,,0.13,Wunderground v.1.15,2013-03-10 01:50:00,
2013-03-09 18:56:00,40.3,27.1,30.00,WNW,286,5.0,6.0,59,0.00,,,0.13,Wunderground v.1.15,2013-03-10 01:56:00,
2013-03-09 19:02:00,40.4,27.2,30.01,West,264,0.0,3.0,59,0.00,,,0.13,Wunderground v.1.15,2013-03-10 02:02:00,
2013-03-09 19:07:00,40.3,27.1,30.01,WSW,252,3.0,7.0,59,0.00,,,0.13,Wunderground v.1.15,2013-03-10 02:07:00,
2013-03-09 19:13:00,40.1,26.5,30.02,West,279,3.0,3.0,58,0.00,,,0.13,Wunderground v.1.15,2013-03-10 02:13:00,
2013-03-09 19:18:00,39.9,26.7,30.02,West,273,2.0,8.0,59,0.00,,,0.13,Wunderground v.1.15,2013-03-10 02:18:00,
2013-03-09 19:23:00,39.5,25.9,30.02,West,275,2.0,3.0,58,0.00,,,0.13,Wunderground v.1.15,2013-03-10 02:23:00,
2013-03-09 19:28:00,39.3,25.7,30.03,West,275,2.0,5.0,58,0.00,,,0.13,Wunderground v.1.15,2013-03-10 02:28:00,
2013-03-09 19:33:00,39.2,26.1,30.03,West,262,0.0,4.0,59,0.00,,,0.13,Wunderground v.1.15,2013-03-10 02:33:00,
2013-03-09 19:38:00,38.9,26.2,30.04,West,265,2.0,4.0,60,0.00,,,0.13,Wunderground v.1.15,2013-03-10 02:38:00,
2013-03-09 19:43:00,38.7,26.0,30.04,West,273,3.0,3.0,60,0.00,,,0.13,Wunderground v.1.15,2013-03-10 02:43:00,
2013-03-09 19:49:00,38.7,25.6,30.04,SW,236,3.0,4.0,59,0.00,,,0.13,Wunderground v.1.15,2013-03-10 02:49:00,
2013-03-09 19:54:00,38.9,24.9,30.04,WSW,242,4.0,7.0,57,0.00,,,0.13,Wunderground v.1.15,2013-03-10 02:54:00,
2013-03-09 20:00:00,39.1,25.1,30.05,West,273,2.0,2.0,57,0.00,,,0.13,Wunderground v.1.15,2013-03-10 03:00:00,
2013-03-09 20:06:00,39.2,24.8,30.05,SW,232,5.0,5.0,56,0.00,,,0.13,Wunderground v.1.15,2013-03-10 03:06:00,
2013-03-09 20:11:00,39.6,24.7,30.05,SW,233,1.0,5.0,55,0.00,,,0.13,Wunderground v.1.15,2013-03-10 03:11:00,
2013-03-09 20:16:00,39.8,24.5,30.05,West,267,0.0,10.0,54,0.00,,,0.13,Wunderground v.1.15,2013-03-10 03:16:00,
2013-03-09 20:21:00,39.8,24.5,30.05,West,265,4.0,5.0,54,0.00,,,0.13,Wunderground v.1.15,2013-03-10 03:21:00,
2013-03-09 20:27:00,39.7,24.4,30.06,West,277,4.0,6.0,54,0.00,,,0.13,Wunderground v.1.15,2013-03-10 03:27:00,
2013-03-09 20:32:00,39.5,24.7,30.06,West,259,6.0,8.0,55,0.00,,,0.13,Wunderground v.1.15,2013-03-10 03:32:00,
2013-03-09 20:37:00,39.2,24.4,30.07,WSW,254,4.0,10.0,55,0.00,,,0.13,Wunderground v.1.15,2013-03-10 03:37:00,
2013-03-09 20:42:00,39.0,24.2,30.07,West,264,4.0,9.0,55,0.00,,,0.13,Wunderground v.1.15,2013-03-10 03:42:00,
2013-03-09 20:48:00,38.5,23.7,30.08,WSW,256,5.0,11.0,55,0.00,,,0.13,Wunderground v.1.15,2013-03-10 03:48:00,
2013-03-09 20:53:00,38.2,23.0,30.08,West,270,2.0,5.0,54,0.00,,,0.13,Wunderground v.1.15,2013-03-10 03:53:00,
2013-03-09 21:00:00,38.1,23.3,30.09,West,278,3.0,4.0,55,0.00,,,0.13,Wunderground v.1.15,2013-03-10 04:00:00,
2013-03-09 21:05:00,37.9,23.2,30.09,WNW,288,0.0,6.0,55,0.00,,,0.13,Wunderground v.1.15,2013-03-10 04:05:00,
2013-03-09 21:11:00,37.9,22.7,30.10,West,261,3.0,3.0,54,0.00,,,0.13,Wunderground v.1.15,2013-03-10 04:11:00,
2013-03-09 21:17:00,37.9,22.7,30.10,WNW,289,5.0,5.0,54,0.00,,,0.13,Wunderground v.1.15,2013-03-10 04:17:00,
2013-03-09 21:24:00,37.9,22.3,30.11,WNW,294,0.0,6.0,53,0.00,,,0.13,Wunderground v.1.15,2013-03-10 04:24:00,
2013-03-09 21:29:00,37.8,22.2,30.11,WNW,293,4.0,6.0,53,0.00,,,0.13,Wunderground v.1.15,2013-03-10 04:29:00,
2013-03-09 21:34:00,37.6,22.4,30.11,WNW,295,3.0,4.0,54,0.00,,,0.13,Wunderground v.1.15,2013-03-10 04:34:00,
2013-03-09 21:39:00,37.3,22.2,30.11,WNW,292,2.0,5.0,54,0.00,,,0.13,Wunderground v.1.15,2013-03-10 04:39:00,
2013-03-09 21:45:00,37.1,22.0,30.11,WNW,290,2.0,4.0,54,0.00,,,0.13,Wunderground v.1.15,2013-03-10 04:45:00,
2013-03-09 21:50:00,37.1,22.0,30.11,WNW,283,1.0,7.0,54,0.00,,,0.13,Wunderground v.1.15,2013-03-10 04:50:00,
2013-03-09 21:56:00,37.1,22.0,30.12,West,279,3.0,7.0,54,0.00,,,0.13,Wunderground v.1.15,2013-03-10 04:56:00,
2013-03-09 22:00:00,37.0,21.9,30.12,West,276,4.0,4.0,54,0.00,,,0.13,Wunderground v.1.15,2013-03-10 05:00:00,
2013-03-09 22:01:00,37.0,21.9,30.12,WSW,247,5.0,5.0,54,0.00,,,0.13,Wunderground v.1.15,2013-03-10 05:01:00,
2013-03-09 22:07:00,37.0,21.0,30.12,West,270,1.0,10.0,52,0.00,,,0.13,Wunderground v.1.15,2013-03-10 05:07:00,
2013-03-09 22:12:00,37.1,21.1,30.13,WNW,283,3.0,5.0,52,0.00,,,0.13,Wunderground v.1.15,2013-03-10 05:12:00,
2013-03-09 22:17:00,37.1,20.6,30.13,West,270,3.0,5.0,51,0.00,,,0.13,Wunderground v.1.15,2013-03-10 05:17:00,
2013-03-09 22:22:00,37.0,20.5,30.13,West,276,0.0,2.0,51,0.00,,,0.13,Wunderground v.1.15,2013-03-10 05:22:00,
2013-03-09 22:29:00,37.1,20.2,30.13,WNW,296,3.0,5.0,50,0.00,,,0.13,Wunderground v.1.15,2013-03-10 05:29:00,
2013-03-09 22:34:00,37.5,20.1,30.13,West,273,4.0,7.0,49,0.00,,,0.13,Wunderground v.1.15,2013-03-10 05:34:00,
2013-03-09 22:39:00,37.8,19.8,30.13,WSW,255,2.0,7.0,48,0.00,,,0.13,Wunderground v.1.15,2013-03-10 05:39:00,
2013-03-09 22:45:00,37.8,19.8,30.14,West,267,1.0,3.0,48,0.00,,,0.13,Wunderground v.1.15,2013-03-10 05:45:00,
2013-03-09 22:50:00,37.7,19.8,30.14,West,281,1.0,1.0,48,0.00,,,0.13,Wunderground v.1.15,2013-03-10 05:50:00,
2013-03-09 22:58:00,37.3,19.9,30.14,WNW,283,2.0,3.0,49,0.00,,,0.13,Wunderground v.1.15,2013-03-10 05:58:00,
2013-03-09 23:03:00,37.2,19.8,30.14,WNW,282,0.0,2.0,49,0.00,,,0.13,Wunderground v.1.15,2013-03-10 06:03:00,
2013-03-09 23:09:00,37.1,19.7,30.15,WSW,245,0.0,3.0,49,0.00,,,0.13,Wunderground v.1.15,2013-03-10 06:09:00,
2013-03-09 23:14:00,37.3,19.4,30.15,West,269,5.0,5.0,48,0.00,,,0.13,Wunderground v.1.15,2013-03-10 06:14:00,
2013-03-09 23:20:00,37.4,20.0,30.15,West,269,0.0,2.0,49,0.00,,,0.13,Wunderground v.1.15,2013-03-10 06:20:00,
2013-03-09 23:25:00,37.0,19.1,30.15,West,269,1.0,2.0,48,0.00,,,0.13,Wunderground v.1.15,2013-03-10 06:25:00,
2013-03-09 23:30:00,36.8,19.4,30.15,West,269,0.0,1.0,49,0.00,,,0.13,Wunderground v.1.15,2013-03-10 06:30:00,
2013-03-09 23:36:00,36.7,19.3,30.15,West,269,2.0,2.0,49,0.00,,,0.13,Wunderground v.1.15,2013-03-10 06:36:00,
2013-03-09 23:41:00,36.6,19.2,30.16,West,269,0.0,1.0,49,0.00,,,0.13,Wunderground v.1.15,2013-03-10 06:41:00,
2013-03-09 23:46:00,36.6,19.7,30.16,West,269,0.0,3.0,50,0.00,,,0.13,Wunderground v.1.15,2013-03-10 06:46:00,
2013-03-09 23:52:00,36.4,19.0,30.16,West,267,3.0,3.0,49,0.00,,,0.13,Wunderground v.1.15,2013-03-10 06:52:00,
2013-03-09 23:59:00,36.6,19.7,30.16,SW,231,0.0,3.0,50,0.00,,,0.13,Wunderground v.1.15,2013-03-10 06:59:00,